THORAD AGENA D DEB, 4918

Orbit data source: Space-Track

THORAD AGENA D DEB, 4918 is space debris in SSO originally from a launch on Wed, 08 Apr 1970 UTC launched from the Air Force Western Test Range (AFWTR). Debris objects in space refer to the collection of defunct objects orbiting the Earth. Examples of debris include non-operational satellites, rocket bodies, and fragments generated from explosions, collisions, or faulty payload assembly.

Loading next visibility...
Identifier
4918, 1970-025FQ
Orbit
SSO
Country
Flag of USUS
Related business
Manufacturer
Unknown
Mission
Spacecraft
Bus & Motor
Unknown
Mass
Unknown
Launch date (UTC)
1970-04-08 (56 years ago)
Launch vehicle
Unknown
Launch site
Air Force Western Test Range (AFWTR)
Object type
Payload
Rocket body
Debris
Shape & HBR
Unknown shape, 0.1 m
Radar Cross Section
Small (<0.1 m²)

Expand to show TLE details & history
Last TLE update: 21 hours ago

TLE from 21 hours ago
0 THORAD AGENA D DEB
1 04918U 70025FQ  26072.32008238  .00000439  00000-0  96396-3 0  9991
2 04918  99.4708 221.8694 0160871 273.9525  84.3222 13.29539613699893
Epoch: 2026-03-13T07:40Z
TLE epoch observation values (Epoch: 2026-03-13T07:40:55.117Z)
Latitude
-0.00007°
Longitude
-64.31755°
Altitude
1,141.218 km
Speed
7.287 km/s
True Right ascension
14h 47m 28s
True Declination
0° 00' 00"
Sunlit
Object was in full shadow at epoch
Visualization orbit readout
Latitude
Unknown
Longitude
Unknown
Altitude
Unknown
Speed
Unknown
Apparent Right ascension
Unknown
Apparent Declination
Unknown
Sunlit
N/A
Visualization observer readout
Local Sidereal Time
09:07:59
Azimuth
Unknown
Elevation
Unknown
Doppler factor
Unknown
Orbital elements
Apogee altitude
1,266.855 km
Perigee altitude
1,024.778 km
Semi-major axis
7,523.953 km
Eccentricity
0.01609
Inclination
99.4708°
RAAN
221.8694°
Arg. of periapsis
273.9525°
True anomaly
86.15994°
Mean anomaly
84.3222°
Eccentric anomaly
85.24074°
Mean motion
3.32563 °/min
Orbital period
108.25 mins
BSTAR
0.00096396
Loading maneuver chart data...
Computing Atmospheric mass density...

Documentation

Showing up to 5 results
|